Hourly Weather Russkiy Turysh

Today, 11 April, Sunday

Time Temperature Precipitation Wind Pressure Humidity
00:00 +4°C° 0 mm 2 mps 748 mmHg 96%
01:00 +4°C° 0 mm 2 mps 748 mmHg 95%
02:00 +3°C° 0 mm 3 mps 748 mmHg 95%
03:00 +3°C° 0 mm 3 mps 748 mmHg 94%
04:00 +3°C° 0 mm 3 mps 748 mmHg 94%
05:00 +4°C° 0 mm 3 mps 748 mmHg 93%
06:00 +4°C° 0 mm 3 mps 749 mmHg 91%
07:00 +4°C° 0 mm 3 mps 749 mmHg 90%
08:00 +5°C° 0 mm 4 mps 749 mmHg 84%
09:00 +6°C° 0 mm 4 mps 749 mmHg 78%
10:00 +7°C° 0 mm 5 mps 749 mmHg 72%
11:00 +8°C° 0 mm 5 mps 749 mmHg 72%
12:00 +9°C° 0 mm 5 mps 748 mmHg 71%
13:00 +9°C° 0 mm 5 mps 748 mmHg 71%
14:00 +10°C° 0 mm 5 mps 749 mmHg 72%
15:00 +11°C° 0 mm 4 mps 749 mmHg 73%
16:00 +11°C° 0 mm 4 mps 749 mmHg 73%
17:00 +10°C° 0 mm 3 mps 749 mmHg 78%
18:00 +9°C° 0 mm 3 mps 749 mmHg 83%
19:00 +8°C° 0 mm 2 mps 750 mmHg 87%
20:00 +8°C° 0.2 mm 2 mps 750 mmHg 90%
21:00 +8°C° 0.2 mm 2 mps 750 mmHg 93%
22:00 +7°C° 0.2 mm 2 mps 750 mmHg 96%
23:00 +7°C° 0.2 mm 2 mps 750 mmHg 96%

Tomorrow, 12 April, Monday

Time Temperature Precipitation Wind Pressure Humidity
00:00 +7°C° 0.2 mm 2 mps 751 mmHg 97%
01:00 +7°C° 0.2 mm 1 mps 751 mmHg 98%
02:00 +7°C° 0.3 mm 1 mps 751 mmHg 98%
03:00 +6°C° 0.3 mm 1 mps 752 mmHg 98%
04:00 +6°C° 0.3 mm 1 mps 752 mmHg 98%
05:00 +6°C° 0.1 mm 1 mps 752 mmHg 97%
06:00 +5°C° 0.1 mm 1 mps 753 mmHg 95%
07:00 +4°C° 0.1 mm 2 mps 753 mmHg 94%
08:00 +5°C° 0 mm 2 mps 754 mmHg 87%
09:00 +6°C° 0 mm 2 mps 754 mmHg 79%
10:00 +7°C° 0 mm 2 mps 754 mmHg 72%
11:00 +7°C° 0 mm 2 mps 754 mmHg 69%
12:00 +8°C° 0 mm 2 mps 754 mmHg 67%
13:00 +9°C° 0 mm 2 mps 754 mmHg 64%
14:00 +9°C° 0 mm 2 mps 754 mmHg 64%
15:00 +10°C° 0 mm 2 mps 755 mmHg 65%
16:00 +10°C° 0 mm 2 mps 755 mmHg 66%
17:00 +9°C° 0 mm 2 mps 755 mmHg 70%
18:00 +8°C° 0 mm 2 mps 755 mmHg 75%
19:00 +7°C° 0 mm 2 mps 755 mmHg 79%
20:00 +6°C° 0 mm 2 mps 755 mmHg 80%
21:00 +5°C° 0 mm 2 mps 755 mmHg 81%
22:00 +4°C° 0 mm 2 mps 755 mmHg 82%
23:00 +4°C° 0 mm 2 mps 755 mmHg 82%

Day after tomorrow, 13 April, Tuesday

Time Temperature Precipitation Wind Pressure Humidity
00:00 +3°C° 0 mm 2 mps 755 mmHg 81%
01:00 +3°C° 0 mm 2 mps 755 mmHg 81%
02:00 +3°C° 0 mm 2 mps 755 mmHg 83%
03:00 +3°C° 0 mm 2 mps 755 mmHg 85%
04:00 +4°C° 0 mm 1 mps 755 mmHg 87%
05:00 +4°C° 0 mm 1 mps 755 mmHg 86%
06:00 +5°C° 0 mm 1 mps 755 mmHg 85%
07:00 +5°C° 0 mm 1 mps 754 mmHg 84%
08:00 +6°C° 0 mm 2 mps 754 mmHg 81%
09:00 +8°C° 0 mm 2 mps 754 mmHg 78%
10:00 +10°C° 0 mm 2 mps 754 mmHg 74%
11:00 +13°C° 0 mm 2 mps 754 mmHg 70%
12:00 +14°C° 0 mm 2 mps 753 mmHg 66%
13:00 +16°C° 0 mm 3 mps 753 mmHg 62%
14:00 +16°C° 0 mm 3 mps 753 mmHg 62%
15:00 +16°C° 0 mm 3 mps 752 mmHg 62%
16:00 +16°C° 0 mm 3 mps 752 mmHg 62%
17:00 +14°C° 0 mm 3 mps 752 mmHg 68%
18:00 +14°C° 0 mm 2 mps 751 mmHg 73%
19:00 +13°C° 0 mm 2 mps 751 mmHg 79%
20:00 +12°C° 0 mm 2 mps 751 mmHg 82%
21:00 +10°C° 0 mm 2 mps 751 mmHg 84%
22:00 +9°C° 0 mm 2 mps 751 mmHg 87%
23:00 +9°C° 0 mm 2 mps 751 mmHg 87%

14 April, Wednesday

Time Temperature Precipitation Wind Pressure Humidity
00:00 +8°C° 0 mm 2 mps 750 mmHg 87%
01:00 +8°C° 0 mm 2 mps 750 mmHg 87%
02:00 +7°C° 0 mm 2 mps 750 mmHg 87%
03:00 +7°C° 0 mm 2 mps 750 mmHg 86%
04:00 +7°C° 0 mm 2 mps 750 mmHg 86%
05:00 +7°C° 0 mm 2 mps 750 mmHg 83%
06:00 +7°C° 0 mm 2 mps 750 mmHg 81%
07:00 +8°C° 0 mm 2 mps 750 mmHg 78%
08:00 +9°C° 0 mm 3 mps 749 mmHg 68%
09:00 +11°C° 0 mm 3 mps 749 mmHg 58%
10:00 +13°C° 0 mm 3 mps 749 mmHg 48%
11:00 +14°C° 0 mm 3 mps 749 mmHg 44%
12:00 +15°C° 0 mm 4 mps 748 mmHg 39%
13:00 +15°C° 0 mm 4 mps 748 mmHg 35%
14:00 +17°C° 0 mm 4 mps 747 mmHg 35%
15:00 +17°C° 0 mm 4 mps 747 mmHg 34%
16:00 +17°C° 0 mm 4 mps 747 mmHg 34%
17:00 +14°C° 0 mm 3 mps 746 mmHg 40%
18:00 +13°C° 0 mm 3 mps 746 mmHg 47%
19:00 +12°C° 0 mm 2 mps 746 mmHg 54%
20:00 +10°C° 0 mm 2 mps 745 mmHg 57%
21:00 +9°C° 0 mm 2 mps 745 mmHg 60%
22:00 +8°C° 0 mm 2 mps 745 mmHg 64%
23:00 +8°C° 0 mm 2 mps 745 mmHg 65%

15 April, Thursday

Time Temperature Precipitation Wind Pressure Humidity
00:00 +7°C° 0 mm 2 mps 745 mmHg 67%
01:00 +7°C° 0 mm 2 mps 744 mmHg 69%
02:00 +6°C° 0 mm 2 mps 744 mmHg 70%
03:00 +6°C° 0 mm 2 mps 744 mmHg 71%
04:00 +5°C° 0 mm 2 mps 744 mmHg 72%
05:00 +6°C° 0 mm 2 mps 744 mmHg 71%
06:00 +7°C° 0 mm 2 mps 744 mmHg 69%
07:00 +7°C° 0 mm 2 mps 743 mmHg 67%
08:00 +9°C° 0 mm 2 mps 743 mmHg 60%
09:00 +12°C° 0 mm 2 mps 743 mmHg 53%
10:00 +14°C° 0 mm 2 mps 743 mmHg 46%
11:00 +15°C° 0 mm 2 mps 742 mmHg 43%
12:00 +16°C° 0 mm 2 mps 742 mmHg 39%
13:00 +17°C° 0 mm 2 mps 742 mmHg 36%
14:00 +17°C° 0 mm 3 mps 741 mmHg 34%
15:00 +18°C° 0 mm 3 mps 741 mmHg 33%
16:00 +18°C° 0 mm 3 mps 741 mmHg 32%
17:00 +16°C° 0 mm 2 mps 740 mmHg 38%
18:00 +15°C° 0 mm 2 mps 740 mmHg 44%
19:00 +13°C° 0 mm 2 mps 739 mmHg 49%
20:00 +12°C° 0 mm 2 mps 739 mmHg 53%
21:00 +10°C° 0 mm 2 mps 739 mmHg 57%
22:00 +9°C° 0 mm 2 mps 738 mmHg 60%
23:00 +9°C° 0 mm 2 mps 738 mmHg 63%

16 April, Friday

Time Temperature Precipitation Wind Pressure Humidity
00:00 +8°C° 0 mm 2 mps 737 mmHg 67%
01:00 +7°C° 0 mm 2 mps 737 mmHg 70%
02:00 +7°C° 0 mm 2 mps 736 mmHg 72%
03:00 +7°C° 0 mm 2 mps 736 mmHg 74%
04:00 +6°C° 0 mm 2 mps 735 mmHg 76%
05:00 +7°C° 0 mm 2 mps 735 mmHg 74%
06:00 +8°C° 0 mm 2 mps 734 mmHg 73%
07:00 +8°C° 0 mm 2 mps 734 mmHg 71%
08:00 +10°C° 0 mm 3 mps 733 mmHg 66%
09:00 +12°C° 0 mm 3 mps 733 mmHg 61%
10:00 +14°C° 0 mm 4 mps 732 mmHg 56%
11:00 +13°C° 0.1 mm 3 mps 732 mmHg 59%
12:00 +12°C° 0.1 mm 3 mps 732 mmHg 63%
13:00 +12°C° 0.1 mm 3 mps 732 mmHg 66%
14:00 +11°C° 0.1 mm 4 mps 732 mmHg 70%
15:00 +8°C° 0.1 mm 4 mps 731 mmHg 73%
16:00 +7°C° 0.1 mm 5 mps 731 mmHg 77%
17:00 +5°C° 0.2 mm 5 mps 732 mmHg 82%
18:00 +3°C° 0.2 mm 5 mps 732 mmHg 88%
19:00 +1°C° 0.2 mm 5 mps 732 mmHg 94%
20:00 +1°C° 0.1 mm 5 mps 732 mmHg 87%
21:00 +1°C° 0.1 mm 5 mps 732 mmHg 80%
22:00 +1°C° 0.1 mm 5 mps 732 mmHg 73%
23:00 0°C° 0.2 mm 5 mps 732 mmHg 79%
Show more